Location: Limerick
(52.6800°N, 8.6400°W)
Time: 10:46:03
(UTC+01:00)

Amateur Radio Satellites - All Passes

Search period start: 31 July 2016 10:16
Search period end: 01 August 2016 10:16
Location: Limerick, 52.6800°N, 8.6400°W

Satellite Date Start Highest point End Downlink Frequencies (MHz)
Time Altitude Azimuth
PRISM 31 Jul 10:16:38 10:19:52 22° 267° (W) 10:23:07 437.425
POPSAT HIP 1 31 Jul 10:18:17 10:19:42 11° 52° (NE) 10:21:08 437.405
RS-15 31 Jul 10:21:58 10:33:35 55° 337° (NNW) 10:45:42 29.354- 29.394
HO-68 31 Jul 10:23:08 10:30:23 81° 291° (WNW) 10:37:34 435.675
Oscar 11 31 Jul 10:23:45 10:27:43 34° 96° (E) 10:31:39 145.826/435.025
YUBILEINY 31 Jul 10:29:21 10:38:09 79° 97° (E) 10:47:01 435.215
HUMSAT D 31 Jul 10:30:01 10:30:18 10° 84° (E) 10:30:35 437.325/437.525
CUBEBUG 2 31 Jul 10:30:59 10:35:45 80° 104° (ESE) 10:40:22 437.445
M-CUBED/EXP-1 PRIME 31 Jul 10:34:16 10:36:02 12° 90° (E) 10:37:47 437.505
QB50P2 31 Jul 10:38:41 10:41:30 18° 57° (ENE) 10:44:21 145.880/145.840
JAS-2 31 Jul 10:39:37 10:41:08 11° 45° (NE) 10:42:39 435.910
POLYITAN 1 31 Jul 10:41:15 10:44:08 18° 57° (ENE) 10:47:02 437.675
SEEDS 31 Jul 10:41:31 10:45:30 45° 291° (WNW) 10:49:29 437.485
GOMX 1 31 Jul 10:44:57 10:45:43 10° 312° (NW) 10:46:29 467.674
COMPASS 1 31 Jul 10:44:59 10:49:04 56° 289° (WNW) 10:53:06 437.405
TIGRISAT 31 Jul 10:46:44 10:51:24 78° 74° (ENE) 10:56:10 435.000
Cosmos 2491 31 Jul 10:53:24 11:00:51 33° 279° (W) 11:08:20 435.465 / 435.565
DELFI C3 31 Jul 10:54:55 10:58:28 31° 96° (E) 11:02:01 145.870
AUBIESAT-1 31 Jul 10:55:44 10:58:31 16° 93° (E) 11:01:17 437.475
UNISAT 6 31 Jul 11:04:39 11:09:20 72° 257° (WSW) 11:14:05 437.425
AAUSAT CUBESAT 2 31 Jul 11:09:03 11:12:56 40° 292° (WNW) 11:16:48 437.432
BUGSAT 1 31 Jul 11:18:37 11:21:20 17° 57° (ENE) 11:24:04 437.445
NANOSAT C BR1 31 Jul 11:19:00 11:22:49 33° 65° (ENE) 11:26:40 145.865
DUCHIFAT 1 31 Jul 11:21:06 11:24:54 32° 65° (ENE) 11:28:44 145.980
Cosmos 2504 31 Jul 11:22:05 11:30:50 65° 93° (E) 11:39:22 435.465 / 435.565
FUNcube-1 31 Jul 11:23:12 11:27:41 74° 288° (WNW) 11:32:04 145.935
AO-7 31 Jul 11:23:41 11:26:05 11° 4° (N) 11:28:29 29.400- 29.500
ZACube-1 31 Jul 11:26:39 11:31:09 65° 288° (WNW) 11:35:30 437.345
CINEMA 3 31 Jul 11:31:10 11:34:23 17° 306° (NW) 11:37:36 145.822/145.860
CANX-2 31 Jul 11:35:09 11:37:02 13° 306° (NW) 11:38:55 2200.000
UWE-3 31 Jul 11:36:17 11:40:37 39° 294° (WNW) 11:44:49 435.000/436.395/437.385
SO-50 31 Jul 11:42:48 11:46:33 22° 347° (NNW) 11:50:15 436.795
ANTELSAT 31 Jul 11:43:36 11:47:52 34° 265° (W) 11:52:11 437.575/2403.000
QB50P1 31 Jul 11:43:37 11:47:48 56° 70° (ENE) 11:52:01 145.935-145.965
CUTE 1.7 + AOD 2 31 Jul 11:48:09 11:49:29 11° 308° (NW) 11:50:49 437.475
POPSAT HIP 1 31 Jul 11:50:28 11:54:41 64° 72° (ENE) 11:58:58 437.405
Oscar 11 31 Jul 11:59:58 12:03:51 33° 295° (WNW) 12:07:42 145.826/435.025
HUMSAT D 31 Jul 12:02:30 12:06:43 77° 102° (ESE) 12:10:51 437.325/437.525
CUBEBUG 1 31 Jul 12:03:07 12:05:03 13° 86° (E) 12:07:01 437.445
M-CUBED/EXP-1 PRIME 31 Jul 12:06:36 12:11:20 71° 109° (ESE) 12:16:01 437.505
CUBEBUG 2 31 Jul 12:08:32 12:11:49 19° 304° (NW) 12:15:01 437.445
HO-68 31 Jul 12:11:38 12:17:12 25° 313° (NW) 12:22:45 435.675
QB50P2 31 Jul 12:12:33 12:16:49 75° 257° (WSW) 12:21:09 145.880/145.840
VELOX 1 31 Jul 12:13:23 12:15:41 14° 87° (E) 12:17:57 145.980
ESTCUBE 1 31 Jul 12:14:45 12:18:20 23° 92° (E) 12:21:53 437.505/2401.250
POLYITAN 1 31 Jul 12:15:10 12:19:28 74° 257° (WSW) 12:23:47 437.675
JAS-2 31 Jul 12:19:48 12:25:12 50° 66° (ENE) 12:30:15 435.910
TIGRISAT 31 Jul 12:25:37 12:28:41 17° 273° (W) 12:31:45 435.000
YUBILEINY 31 Jul 12:28:13 12:35:57 33° 301° (WNW) 12:43:46 435.215
AUBIESAT-1 31 Jul 12:28:53 12:33:34 89° 281° (W) 12:38:12 437.475
DELFI C3 31 Jul 12:29:50 12:33:19 30° 295° (WNW) 12:36:48 145.870
RS-15 31 Jul 12:37:17 12:48:58 49° 10° (N) 13:00:53 29.354- 29.394
50 SAT 31 Jul 12:39:34 12:42:21 20° 93° (E) 12:45:06 437.505
Oscar 19 31 Jul 12:41:39 12:45:51 26° 58° (ENE) 12:50:04 437.125/150
DX 1 31 Jul 12:42:02 12:45:07 18° 90° (E) 12:48:10 434.975-435.025
UNISAT 6 31 Jul 12:45:27 12:46:55 11° 277° (W) 12:48:24 437.425
UKube-1 31 Jul 12:47:22 12:50:11 17° 89° (E) 12:52:58 .
BUGSAT 1 31 Jul 12:52:06 12:56:13 74° 256° (WSW) 13:00:27 437.445
NANOSAT C BR1 31 Jul 12:54:40 12:58:32 34° 264° (W) 13:02:29 145.865
DUCHIFAT 1 31 Jul 12:56:42 13:00:35 34° 264° (W) 13:04:30 145.980
AISAT 31 Jul 12:57:31 13:01:36 34° 96° (E) 13:05:42 437.250
Gurwin Techsat 1B 31 Jul 12:58:53 13:02:43 20° 53° (NE) 13:06:32 435.225
FUNcube-1 31 Jul 13:01:00 13:03:10 13° 307° (NW) 13:05:18 145.935
ZACube-1 31 Jul 13:04:47 13:06:34 12° 309° (NW) 13:08:20 437.345
AO-7 31 Jul 13:10:14 13:15:43 20° 32° (NNE) 13:21:12 29.400- 29.500
SPROUT 31 Jul 13:11:22 13:14:55 24° 92° (E) 13:18:27 437.525
Cosmos 2504 31 Jul 13:16:31 13:24:45 40° 296° (WNW) 13:32:48 435.465 / 435.565
QB50P1 31 Jul 13:20:47 13:23:56 20° 269° (W) 13:27:07 145.935-145.965
SO-50 31 Jul 13:24:53 13:28:34 21° 12° (NNE) 13:32:10 436.795
POPSAT HIP 1 31 Jul 13:28:00 13:30:55 18° 271° (W) 13:33:51 437.405
CUBEBUG 1 31 Jul 13:37:36 13:42:03 87° 109° (ESE) 13:46:28 437.445
HUMSAT D 31 Jul 13:39:11 13:41:50 17° 303° (WNW) 13:44:28 437.325/437.525
M-CUBED/EXP-1 PRIME 31 Jul 13:41:43 13:45:26 24° 308° (NW) 13:49:09 437.505
AIST 1 31 Jul 13:42:12 13:46:20 52° 95° (E) 13:50:31
VELOX 1 31 Jul 13:48:19 13:52:48 88° 281° (WNW) 13:57:16 145.980
TISAT 1 31 Jul 13:50:48 13:53:33 16° 89° (E) 13:56:16 437.305
ESTCUBE 1 31 Jul 13:51:04 13:55:27 53° 291° (WNW) 13:59:49 437.505/2401.250
QB50P2 31 Jul 13:52:39 13:53:25 10° 276° (W) 13:54:11 145.880/145.840
AO-85 31 Jul 13:54:49 13:59:49 42° 122° (ESE) 14:04:33 145.980
POLYITAN 1 31 Jul 13:55:27 13:56:04 10° 276° (W) 13:56:40 437.675
AUBIESAT-1 31 Jul 14:04:13 14:07:26 19° 311° (NW) 14:10:39 437.475
JAS-2 31 Jul 14:05:40 14:10:35 30° 266° (W) 14:15:13 435.910
50 SAT 31 Jul 14:12:45 14:16:09 39° 292° (WNW) 14:19:31 437.505
Cosmos 2499 31 Jul 14:13:29 14:17:58 15° 70° (ENE) 14:22:21 435.465 / 435.565
DX 1 31 Jul 14:17:23 14:21:44 64° 289° (WNW) 14:26:05 434.975-435.025
Oscar 19 31 Jul 14:19:46 14:24:50 62° 257° (WSW) 14:29:57 437.125/150
UKube-1 31 Jul 14:22:22 14:26:43 70° 288° (WNW) 14:31:01 .
ITAMSAT 1 31 Jul 14:25:19 14:29:59 34° 61° (ENE) 14:34:39 435.822/435.867
DANDE 31 Jul 14:29:15 14:30:21 12° 65° (ENE) 14:31:29 436.750
AISAT 31 Jul 14:34:02 14:38:06 35° 296° (WNW) 14:42:10 437.250
YUBILEINY 31 Jul 14:34:15 14:36:33 11° 332° (NNW) 14:38:51 435.215
Gurwin Techsat 1B 31 Jul 14:36:42 14:42:02 88° 253° (WSW) 14:47:25 435.225
GONETS M04 31 Jul 14:40:22 14:47:26 29° 78° (ENE) 14:54:32
BEESAT 31 Jul 14:45:13 14:47:35 14° 86° (E) 14:49:56 436.000
SPROUT 31 Jul 14:46:56 14:51:05 46° 292° (WNW) 14:55:14 437.525
RS-15 31 Jul 14:51:09 15:03:32 77° 41° (NE) 15:15:54 29.354- 29.394
AO-7 31 Jul 14:58:45 15:06:43 51° 56° (NE) 15:14:42 29.400- 29.500
CUSAT 1 31 Jul 15:04:03 15:07:02 67° 258° (WSW) 15:10:45 437.405
SO-50 31 Jul 15:05:34 15:10:08 45° 35° (NE) 15:14:33 436.795
ITUPSAT 1 31 Jul 15:10:28 15:14:10 22° 91° (E) 15:17:50 437.325
CUBEBUG 1 31 Jul 15:15:02 15:17:45 16° 305° (NW) 15:20:28 437.445
Cosmos 2504 31 Jul 15:17:15 15:21:08 13° 323° (NW) 15:24:57 435.465 / 435.565
AIST 1 31 Jul 15:20:59 15:24:15 21° 296° (WNW) 15:27:34
TISAT 1 31 Jul 15:25:25 15:29:40 69° 289° (WNW) 15:33:54 437.305
VELOX 1 31 Jul 15:26:01 15:28:40 16° 306° (NW) 15:31:17 145.980
ESTCUBE 1 31 Jul 15:30:42 15:31:19 10° 311° (NW) 15:31:56 437.505/2401.250
AO-85 31 Jul 15:35:13 15:40:19 50° 322° (NW) 15:45:07 145.980
HORYU 2 31 Jul 15:43:40 15:45:49 13° 51° (NE) 15:47:58 437.375
DX 1 31 Jul 15:55:30 15:57:08 12° 309° (NW) 15:58:45 434.975-435.025
UKube-1 31 Jul 16:00:09 16:02:01 13° 308° (NW) 16:03:52 .
SWISSCUBE 31 Jul 16:00:29 16:05:15 62° 102° (ESE) 16:09:57 437.505
Cosmos 2499 31 Jul 16:00:48 16:09:23 59° 92° (E) 16:17:36 435.465 / 435.565
ITAMSAT 1 31 Jul 16:04:20 16:09:21 47° 261° (W) 16:14:25 435.822/435.867
Oscar 19 31 Jul 16:04:27 16:05:15 10° 278° (W) 16:06:03 437.125/150
DANDE 31 Jul 16:10:52 16:13:14 29° 262° (W) 16:15:48 436.750
NOAA 18 31 Jul 16:17:49 16:18:23 10° 39° (NE) 16:18:56 137.9125
Gurwin Techsat 1B 31 Jul 16:19:31 16:22:47 16° 274° (W) 16:26:05 435.225
BEESAT 31 Jul 16:21:20 16:26:08 84° 104° (ESE) 16:30:54 436.000
MOZHAYETS 4 31 Jul 16:21:55 16:24:54 17° 88° (E) 16:27:53
GONETS M04 31 Jul 16:34:39 16:43:22 81° 282° (WNW) 16:52:12
CUTE-I 31 Jul 16:40:24 16:42:42 13° 46° (NE) 16:45:00 437.470
NOAA 15 31 Jul 16:44:11 16:47:18 16° 50° (NE) 16:50:25 137.62
SO-50 31 Jul 16:46:14 16:50:38 42° 237° (WSW) 16:54:55 436.795
ITUPSAT 1 31 Jul 16:47:41 16:52:25 61° 291° (WNW) 16:57:06 437.325
KKS-1 31 Jul 16:49:59 16:53:45 26° 93° (E) 16:57:30 437.445
AO-7 31 Jul 16:51:24 16:59:32 53° 258° (WSW) 17:07:43 29.400- 29.500
TISAT 1 31 Jul 17:02:54 17:04:34 12° 308° (NW) 17:06:14 437.305
RS-15 31 Jul 17:04:06 17:15:28 47° 248° (WSW) 17:26:46 29.354- 29.394
GOMX 1 31 Jul 17:06:12 17:07:20 11° 48° (NE) 17:08:26 467.674
STARS 31 Jul 17:15:55 17:19:34 24° 93° (E) 17:23:12 437.465
HORYU 2 31 Jul 17:17:08 17:21:37 71° 71° (ENE) 17:26:08 437.375
AO-85 31 Jul 17:17:50 17:21:48 22° 344° (NNW) 17:25:33 145.980
HO-68 31 Jul 17:28:19 17:31:27 13° 32° (NNE) 17:34:35 435.675
SWISSCUBE 31 Jul 17:38:55 17:42:42 24° 302° (WNW) 17:46:26 437.505
NOAA 18 31 Jul 17:52:33 17:57:38 38° 61° (ENE) 18:02:45 137.9125
CUBESAT XI-V 31 Jul 17:53:42 17:57:00 19° 89° (E) 18:00:18 437.345
Cosmos 2499 31 Jul 17:54:35 18:02:51 43° 294° (WNW) 18:10:48 435.465 / 435.565
Cubesat XI-IV 31 Jul 17:54:43 17:59:38 38° 62° (ENE) 18:04:33 437.490
MOZHAYETS 4 31 Jul 17:58:02 18:02:37 74° 288° (WNW) 18:07:10
BEESAT 31 Jul 18:00:06 18:03:21 19° 306° (NW) 18:06:36 436.000
BRITE-PL 31 Jul 18:02:27 18:06:30 52° 69° (ENE) 18:10:44 437.365/2234.400
LilacSat-2 31 Jul 18:04:28 18:07:56 31° 66° (ENE) 18:11:25 437.200
BEESAT 3 31 Jul 18:09:49 18:12:58 23° 118° (ESE) 18:16:09 437.485
DOVE 4 31 Jul 18:10:37 18:13:52 20° 56° (NE) 18:17:17 437.250
CUTE-I 31 Jul 18:16:27 18:21:40 53° 67° (ENE) 18:26:54 437.470
NOAA 15 31 Jul 18:21:01 18:26:15 72° 70° (ENE) 18:31:30 137.62
BEESAT 2 31 Jul 18:25:50 18:28:43 20° 116° (ESE) 18:31:38 435.950
KKS-1 31 Jul 18:26:13 18:30:32 47° 293° (WNW) 18:34:51 437.445
ITUPSAT 1 31 Jul 18:27:19 18:29:22 13° 311° (NW) 18:31:24 437.325
GONETS M04 31 Jul 18:34:54 18:41:47 25° 308° (NW) 18:48:45
YUBILEINY 31 Jul 18:35:56 18:41:33 18° 43° (NE) 18:47:08 435.215
GOMX 1 31 Jul 18:40:11 18:44:24 57° 70° (ENE) 18:48:55 467.674
AO-7 31 Jul 18:51:15 18:54:27 12° 281° (WNW) 18:57:38 29.400- 29.500
STARS 31 Jul 18:51:52 18:56:11 49° 292° (WNW) 19:00:28 437.465
PCSat 31 Jul 18:52:13 18:56:38 26° 111° (ESE) 19:01:06 145.827
HORYU 2 31 Jul 18:55:40 18:58:41 17° 271° (W) 19:01:42 437.375
AO-85 31 Jul 19:00:12 19:03:49 20° 9° (N) 19:07:13 145.980
HO-68 31 Jul 19:10:48 19:17:18 39° 55° (NE) 19:23:50 435.675
Cosmos 2504 31 Jul 19:16:34 19:18:54 11° 32° (NNE) 19:21:13 435.465 / 435.565
CANX-2 31 Jul 19:21:09 19:24:31 23° 61° (ENE) 19:27:52 2200.000
RS-15 31 Jul 19:21:16 19:24:24 11° 273° (W) 19:27:31 29.354- 29.394
CINEMA 3 31 Jul 19:23:47 19:27:51 29° 61° (ENE) 19:32:03 145.822/145.860
UWE-3 31 Jul 19:30:09 19:31:04 11° 49° (NE) 19:31:58 435.000/436.395/437.385
CUBESAT XI-V 31 Jul 19:30:15 19:34:51 66° 288° (WNW) 19:39:26 437.345
NOAA 18 31 Jul 19:32:58 19:38:15 45° 261° (W) 19:43:36 137.9125
CUTE 1.7 + AOD 2 31 Jul 19:33:23 19:36:55 26° 63° (ENE) 19:40:27 437.475
Cubesat XI-IV 31 Jul 19:34:33 19:39:40 43° 262° (W) 19:44:49 437.490
MOZHAYETS 4 31 Jul 19:36:44 19:39:02 14° 308° (NW) 19:41:20
LilacSat-2 31 Jul 19:38:47 19:42:15 30° 265° (W) 19:45:44 437.200
STRAND 1 31 Jul 19:40:25 19:43:32 16° 87° (E) 19:46:36 437.568
BRITE-PL 31 Jul 19:42:17 19:45:24 20° 270° (W) 19:48:37 437.365/2234.400
BEESAT 3 31 Jul 19:46:29 19:50:22 57° 318° (NW) 19:54:18 437.485
DOVE 4 31 Jul 19:46:35 19:51:02 74° 257° (WSW) 19:55:50 437.250
Oscar 11 31 Jul 19:52:25 19:52:51 10° 50° (NE) 19:53:17 145.826/435.025
Cosmos 2499 31 Jul 19:54:35 19:58:41 14° 321° (NW) 20:02:42 435.465 / 435.565
CUTE-I 31 Jul 19:57:19 20:02:00 30° 266° (W) 20:06:42 437.470
CUBEBUG 2 31 Jul 19:59:08 20:02:48 23° 59° (ENE) 20:06:30 437.445
BEESAT 2 31 Jul 20:02:12 20:06:10 69° 316° (NW) 20:10:10 435.950
NOAA 15 31 Jul 20:02:38 20:06:35 21° 270° (W) 20:10:32 137.62
SEEDS 31 Jul 20:03:17 20:07:07 35° 66° (ENE) 20:10:57 437.485
COMPASS 1 31 Jul 20:06:19 20:09:52 28° 64° (ENE) 20:13:26 437.405
Cosmos 2491 31 Jul 20:12:26 20:17:33 17° 70° (ENE) 20:22:40 435.465 / 435.565
GOMX 1 31 Jul 20:19:47 20:22:59 20° 271° (W) 20:26:19 467.674
AAUSAT CUBESAT 2 31 Jul 20:29:27 20:33:16 36° 67° (ENE) 20:37:04 437.432
O/OREOS (USA 219) 31 Jul 20:31:56 20:35:59 35° 108° (ESE) 20:40:04 437.305
YUBILEINY 31 Jul 20:32:09 20:40:51 55° 70° (ENE) 20:49:28 435.215
PCSat 31 Jul 20:34:11 20:39:37 71° 312° (NW) 20:45:05 145.827
AO-85 31 Jul 20:41:02 20:45:29 40° 33° (NNE) 20:49:33 145.980
ISS 31 Jul 20:43:10 20:45:04 15° 142° (SE) 20:46:58 145.825
FUNcube-1 31 Jul 20:48:35 20:52:27 28° 62° (ENE) 20:56:20 145.935
ZACube-1 31 Jul 20:52:06 20:56:06 31° 63° (ENE) 21:00:09 437.345
CANX-2 31 Jul 20:55:56 21:00:06 52° 260° (W) 21:04:17 2200.000
HO-68 31 Jul 20:57:39 21:04:46 62° 257° (WSW) 21:11:56 435.675
CINEMA 3 31 Jul 21:00:14 21:04:47 48° 262° (W) 21:09:32 145.822/145.860
UWE-3 31 Jul 21:02:00 21:06:30 51° 69° (ENE) 21:11:04 435.000/436.395/437.385
AIST 2 31 Jul 21:05:58 21:09:49 39° 123° (ESE) 21:13:41 435.215
Cosmos 2504 31 Jul 21:08:09 21:15:35 35° 61° (ENE) 21:22:31 435.465 / 435.565
CUTE 1.7 + AOD 2 31 Jul 21:08:30 21:12:35 44° 261° (W) 21:16:41 437.475
CUBESAT XI-V 31 Jul 21:09:25 21:11:25 13° 308° (NW) 21:13:26 437.345
STRAND 1 31 Jul 21:18:18 21:23:28 90° 150° (SSE) 21:28:34 437.568
Oscar 11 31 Jul 21:23:50 21:28:05 55° 70° (ENE) 21:32:21 145.826/435.025
M-CUBED/EXP-1 PRIME 31 Jul 21:24:38 21:28:19 33° 57° (ENE) 21:32:16 437.505
HUMSAT D 31 Jul 21:25:15 21:28:09 18° 58° (ENE) 21:31:02 437.325/437.525
BEESAT 3 31 Jul 21:25:56 21:28:49 19° 340° (NNW) 21:31:44 437.485
DOVE 4 31 Jul 21:28:29 21:29:45 11° 279° (W) 21:31:02 437.250
CUBEBUG 2 31 Jul 21:34:21 21:39:01 65° 259° (WSW) 21:43:47 437.445
SEEDS 31 Jul 21:39:06 21:42:52 31° 265° (W) 21:46:38 437.485
COMPASS 1 31 Jul 21:41:25 21:45:20 39° 263° (W) 21:49:15 437.405
BEESAT 2 31 Jul 21:41:36 21:44:41 21° 338° (NNW) 21:47:45 435.950
AUBIESAT-1 31 Jul 21:46:11 21:50:05 42° 60° (ENE) 21:54:15 437.475
DELFI C3 31 Jul 21:46:12 21:49:56 42° 69° (ENE) 21:53:42 145.870
PRISM 31 Jul 21:51:10 21:54:52 32° 96° (E) 21:58:34 437.425
Cosmos 2491 31 Jul 22:04:05 22:12:40 67° 94° (E) 22:21:17 435.465 / 435.565
AAUSAT CUBESAT 2 31 Jul 22:05:13 22:08:49 29° 266° (W) 22:12:27 437.432
O/OREOS (USA 219) 31 Jul 22:11:11 22:15:22 38° 309° (NW) 22:19:36 437.305
ISS 31 Jul 22:17:48 22:20:57 47° 161° (SSE) 22:24:07 145.825
PCSat 31 Jul 22:19:27 22:23:56 25° 335° (NNW) 22:28:26 145.827
AO-85 31 Jul 22:21:42 22:26:01 44° 237° (WSW) 22:29:59 145.980
FUNcube-1 31 Jul 22:24:04 22:28:30 48° 262° (W) 22:32:58 145.935
AISAT 31 Jul 22:27:26 22:29:00 12° 50° (NE) 22:30:34 437.250
ZACube-1 31 Jul 22:27:55 22:32:17 42° 263° (W) 22:36:41 437.345
YUBILEINY 31 Jul 22:29:20 22:37:33 45° 274° (W) 22:45:43 435.215
TIGRISAT 31 Jul 22:34:33 22:36:08 12° 83° (E) 22:37:42 435.000
UWE-3 31 Jul 22:39:22 22:43:13 25° 268° (W) 22:47:08 435.000/436.395/437.385
AIST 2 31 Jul 22:44:23 22:48:19 41° 324° (NW) 22:52:16 435.215
HO-68 31 Jul 22:50:25 22:54:02 14° 279° (W) 22:57:38 435.675
UNISAT 6 31 Jul 22:51:26 22:54:32 17° 88° (E) 22:57:35 437.425
STRAND 1 31 Jul 22:58:29 23:02:00 19° 307° (NW) 23:05:31 437.568
HUMSAT D 31 Jul 22:59:00 23:03:18 74° 257° (WSW) 23:07:37 437.325/437.525
M-CUBED/EXP-1 PRIME 31 Jul 22:59:02 23:02:48 37° 258° (WSW) 23:06:52 437.505
Oscar 11 31 Jul 23:01:16 23:04:33 21° 269° (W) 23:07:52 145.826/435.025
Cosmos 2504 31 Jul 23:01:33 23:09:40 67° 266° (W) 23:17:09 435.465 / 435.565
CUBEBUG 1 31 Jul 23:04:08 23:07:30 23° 60° (ENE) 23:10:55 437.445
BEESAT 3 31 Jul 23:05:38 23:07:53 14° 4° (N) 23:10:09 437.485
VELOX 1 31 Jul 23:15:47 23:19:24 26° 61° (ENE) 23:23:04 145.980
CUBEBUG 2 31 Jul 23:16:11 23:16:37 10° 279° (W) 23:17:03 437.445
ESTCUBE 1 31 Jul 23:19:39 23:23:52 42° 67° (ENE) 23:28:06 437.505/2401.250
AUBIESAT-1 31 Jul 23:21:09 23:24:41 28° 261° (W) 23:28:28 437.475
BEESAT 2 31 Jul 23:21:35 23:23:52 15° 2° (N) 23:26:10 435.950
DELFI C3 31 Jul 23:21:47 23:24:59 23° 267° (W) 23:28:11 145.870
50 SAT 31 Jul 23:22:39 23:25:38 24° 64° (ENE) 23:28:37 437.505
PRISM 31 Jul 23:26:31 23:30:12 33° 295° (WNW) 23:33:53 437.425
ANTELSAT 31 Jul 23:28:59 23:33:16 35° 96° (E) 23:37:26 437.575/2403.000
DX 1 31 Jul 23:42:49 23:46:43 33° 64° (ENE) 23:50:38 434.975-435.025
AIST 1 31 Jul 23:43:01 23:46:43 27° 67° (ENE) 23:50:27
UKube-1 31 Jul 23:47:05 23:50:51 30° 63° (ENE) 23:54:38 .
QB50P2 31 Jul 23:53:11 23:55:05 13° 86° (E) 23:56:59 145.880/145.840
ISS 31 Jul 23:54:00 23:57:15 76° 180° (S) 00:00:31 145.825
O/OREOS (USA 219) 31 Jul 23:54:42 23:56:07 11° 333° (NNW) 23:57:31 437.305
POLYITAN 1 31 Jul 23:55:46 23:57:44 13° 86° (E) 23:59:42 437.675
AISAT 01 Aug 00:00:18 00:04:39 63° 71° (ENE) 00:09:02 437.250
Cosmos 2491 01 Aug 00:02:13 00:10:10 38° 298° (WNW) 00:18:11 435.465 / 435.565
PCSat 01 Aug 00:05:33 00:09:12 18° 1° (N) 00:12:52 145.827
TIGRISAT 01 Aug 00:09:00 00:13:41 76° 104° (ESE) 00:18:13 435.000
SPROUT 01 Aug 00:10:16 00:14:15 39° 66° (ENE) 00:18:17 437.525
AIST 2 01 Aug 00:24:58 00:27:49 17° 347° (NNW) 00:30:40 435.215
UNISAT 6 01 Aug 00:27:09 00:31:48 73° 289° (WNW) 00:36:19 437.425
BUGSAT 1 01 Aug 00:29:48 00:31:23 12° 86° (E) 00:32:57 437.445
YUBILEINY 01 Aug 00:30:34 00:31:51 10° 298° (WNW) 00:33:08 435.215
NANOSAT C BR1 01 Aug 00:32:55 00:36:33 26° 93° (E) 00:40:08 145.865
DUCHIFAT 1 01 Aug 00:34:42 00:38:18 25° 93° (E) 00:41:51 145.980
HUMSAT D 01 Aug 00:39:08 00:39:42 10° 276° (W) 00:40:16 437.325/437.525
CUBEBUG 1 01 Aug 00:39:15 00:43:30 55° 260° (W) 00:47:48 437.445
GONETS M04 01 Aug 00:40:58 00:47:36 23° 50° (NE) 00:54:15
BEESAT 3 01 Aug 00:43:27 00:46:49 25° 28° (NNE) 00:50:10 437.485
TISAT 1 01 Aug 00:47:44 00:51:16 27° 62° (ENE) 00:54:51 437.305
ITUPSAT 1 01 Aug 00:49:34 00:50:22 10° 46° (NE) 00:51:10 437.325
VELOX 1 01 Aug 00:51:25 00:55:40 48° 260° (W) 00:59:58 145.980
50 SAT 01 Aug 00:55:46 00:59:09 35° 262° (W) 01:02:32 437.505
Cosmos 2504 01 Aug 00:56:48 01:01:19 16° 290° (WNW) 01:05:40 435.465 / 435.565
ESTCUBE 1 01 Aug 00:56:55 01:00:49 29° 266° (W) 01:04:45 437.505/2401.250
QB50P1 01 Aug 00:58:03 01:02:13 46° 99° (E) 01:06:20 145.935-145.965
BEESAT 2 01 Aug 00:59:44 01:03:01 23° 25° (NNE) 01:06:17 435.950
POPSAT HIP 1 01 Aug 01:04:58 01:09:12 52° 100° (E) 01:13:23 437.405
ANTELSAT 01 Aug 01:05:45 01:09:58 35° 296° (WNW) 01:14:06 437.575/2403.000
JAS-2 01 Aug 01:06:33 01:10:52 24° 92° (E) 01:15:28 435.910
DX 1 01 Aug 01:18:55 01:22:53 35° 263° (W) 01:26:54 434.975-435.025
AIST 1 01 Aug 01:20:23 01:24:29 41° 267° (W) 01:28:36
UKube-1 01 Aug 01:22:47 01:26:48 38° 262° (W) 01:30:53 .
QB50P2 01 Aug 01:27:14 01:31:34 90° 114° (ESE) 01:35:52 145.880/145.840
POLYITAN 1 01 Aug 01:29:52 01:34:12 89° 284° (WNW) 01:38:30 437.675
ISS 01 Aug 01:30:24 01:33:32 43° 201° (SSW) 01:36:39 145.825
SWISSCUBE 01 Aug 01:36:13 01:40:02 24° 58° (ENE) 01:43:52 437.505
AISAT 01 Aug 01:38:25 01:41:33 19° 270° (W) 01:44:43 437.250
Cosmos 2499 01 Aug 01:45:25 01:52:18 31° 59° (ENE) 01:58:44 435.465 / 435.565
SPROUT 01 Aug 01:46:34 01:50:19 29° 266° (W) 01:54:06 437.525
TIGRISAT 01 Aug 01:46:35 01:49:51 19° 304° (WNW) 01:53:03 435.000
PCSat 01 Aug 01:49:48 01:54:25 27° 27° (NNE) 01:59:01 145.827
BEESAT 01 Aug 01:56:30 02:00:42 31° 62° (ENE) 02:04:54 436.000
BUGSAT 1 01 Aug 02:03:09 02:07:27 84° 105° (ESE) 02:11:43 437.445
AIST 2 01 Aug 02:05:00 02:07:46 17° 11° (N) 02:10:32 435.215
UNISAT 6 01 Aug 02:05:22 02:07:43 14° 308° (NW) 02:10:03 437.425
Cosmos 2491 01 Aug 02:07:04 02:10:23 12° 327° (NNW) 02:13:43 435.465 / 435.565
NANOSAT C BR1 01 Aug 02:08:23 02:12:27 42° 293° (WNW) 02:16:29 145.865
DUCHIFAT 1 01 Aug 02:10:06 02:14:11 43° 293° (WNW) 02:18:12 145.980
BEESAT 3 01 Aug 02:20:57 02:24:56 79° 229° (SW) 02:28:54 437.485
ITUPSAT 1 01 Aug 02:22:33 02:27:09 48° 67° (ENE) 02:31:47 437.325
TISAT 1 01 Aug 02:22:45 02:26:46 42° 261° (W) 02:30:51 437.305
Oscar 19 01 Aug 02:25:17 02:29:52 31° 94° (E) 02:34:26 437.125/150
QB50P1 01 Aug 02:34:14 02:37:48 26° 298° (WNW) 02:41:20 145.935-145.965
BEESAT 2 01 Aug 02:37:21 02:41:23 87° 41° (NE) 02:45:24 435.950
GONETS M04 01 Aug 02:37:25 02:46:17 73° 76° (ENE) 02:55:07
POPSAT HIP 1 01 Aug 02:41:19 02:44:43 23° 300° (WNW) 02:48:06 437.405
Gurwin Techsat 1B 01 Aug 02:47:18 02:51:36 24° 91° (E) 02:55:52 435.225
JAS-2 01 Aug 02:51:11 02:56:25 63° 290° (WNW) 03:02:05 435.910
QB50P2 01 Aug 03:04:17 03:06:46 15° 305° (NW) 03:09:14 145.880/145.840
POLYITAN 1 01 Aug 03:06:56 03:09:24 15° 305° (NW) 03:11:51 437.675
ISS 01 Aug 03:07:46 03:09:22 13° 219° (SW) 03:10:57 145.825
SWISSCUBE 01 Aug 03:12:45 03:17:30 61° 258° (WSW) 03:22:15 437.505
O/OREOS (USA 219) 01 Aug 03:18:55 03:19:42 10° 25° (NNE) 03:20:29 437.305
MOZHAYETS 4 01 Aug 03:29:00 03:33:06 32° 64° (ENE) 03:37:11
PCSat 01 Aug 03:33:09 03:38:37 81° 50° (NE) 03:44:03 145.827
BEESAT 01 Aug 03:33:47 03:38:21 44° 261° (W) 03:42:59 436.000
Cosmos 2499 01 Aug 03:38:26 03:46:18 74° 264° (W) 03:53:33 435.465 / 435.565
BUGSAT 1 01 Aug 03:39:41 03:42:17 16° 304° (NW) 03:44:52 437.445
AIST 2 01 Aug 03:43:27 03:47:21 36° 34° (NE) 03:51:14 435.215
DANDE 01 Aug 03:44:51 03:47:03 14° 93° (E) 03:49:01 436.750
KKS-1 01 Aug 03:53:22 03:57:39 48° 68° (ENE) 04:01:58 437.445
BEESAT 3 01 Aug 04:00:16 04:01:57 12° 248° (WSW) 04:03:37 437.485
ITUPSAT 1 01 Aug 04:01:06 04:05:13 28° 266° (W) 04:09:21 437.325
Oscar 19 01 Aug 04:04:26 04:09:26 49° 293° (WNW) 04:14:24 437.125/150
ITAMSAT 1 01 Aug 04:10:50 04:15:44 40° 97° (E) 04:20:35 435.822/435.867
CUSAT 1 01 Aug 04:14:14 04:17:26 66° 101° (ESE) 04:20:10 437.405
BEESAT 2 01 Aug 04:16:19 04:18:40 15° 246° (WSW) 04:21:00 435.950
STARS 01 Aug 04:17:51 04:22:03 44° 67° (ENE) 04:26:17 437.465
Gurwin Techsat 1B 01 Aug 04:26:43 04:32:00 65° 291° (WNW) 04:37:16 435.225
GONETS M04 01 Aug 04:34:55 04:42:28 33° 279° (W) 04:50:01
JAS-2 01 Aug 04:38:02 04:40:40 14° 311° (NW) 04:43:24 435.910
AO-7 01 Aug 04:45:51 04:53:37 40° 97° (E) 05:01:16 29.400- 29.500
O/OREOS (USA 219) 01 Aug 04:56:24 05:00:33 33° 49° (NE) 05:04:42 437.305
CUBESAT XI-V 01 Aug 05:02:23 05:06:33 36° 65° (ENE) 05:10:46 437.345
MOZHAYETS 4 01 Aug 05:05:50 05:10:12 40° 263° (W) 05:14:34
PCSat 01 Aug 05:17:20 05:21:27 23° 251° (WSW) 05:25:35 145.827
AIST 2 01 Aug 05:21:57 05:25:58 47° 235° (SW) 05:29:59 435.215
DANDE 01 Aug 05:25:21 05:29:40 57° 284° (WNW) 05:33:00 436.750
RS-15 01 Aug 05:26:08 05:34:03 22° 97° (E) 05:42:10 29.354- 29.394
KKS-1 01 Aug 05:30:47 05:34:27 25° 267° (W) 05:38:10 437.445
Cosmos 2499 01 Aug 05:33:12 05:37:54 18° 288° (WNW) 05:42:26 435.465 / 435.565
Oscar 19 01 Aug 05:45:58 05:47:38 12° 315° (NW) 05:49:18 437.125/150
ITAMSAT 1 01 Aug 05:50:25 05:55:13 39° 297° (WNW) 05:59:59 435.822/435.867
STARS 01 Aug 05:54:51 05:58:35 26° 266° (W) 06:02:21 437.465
BRITE-PL 01 Aug 06:01:30 06:03:46 13° 85° (E) 06:06:06 437.365/2234.400
Gurwin Techsat 1B 01 Aug 06:08:08 06:11:02 15° 311° (NW) 06:13:56 435.225
Cosmos 2491 01 Aug 06:10:48 06:15:31 15° 39° (NE) 06:20:14 435.465 / 435.565
CUTE-I 01 Aug 06:29:05 06:31:28 13° 84° (E) 06:33:50 437.470
NOAA 15 01 Aug 06:31:03 06:34:26 17° 87° (E) 06:37:49 137.62
O/OREOS (USA 219) 01 Aug 06:35:47 06:40:04 42° 249° (WSW) 06:44:22 437.305
GOMX 1 01 Aug 06:36:24 06:39:06 14° 85° (E) 06:41:50 467.674
HORYU 2 01 Aug 06:38:32 06:43:00 61° 102° (ESE) 06:47:24 437.375
AO-7 01 Aug 06:38:36 06:46:51 64° 299° (WNW) 06:55:02 29.400- 29.500
CUBESAT XI-V 01 Aug 06:39:45 06:43:58 35° 264° (W) 06:48:12 437.345
STRAND 1 01 Aug 07:01:27 07:06:16 42° 64° (ENE) 07:11:05 437.568
LilacSat-2 01 Aug 07:06:17 07:09:15 21° 92° (E) 07:12:12 437.200
SO-50 01 Aug 07:07:03 07:10:02 16° 112° (ESE) 07:13:02 436.795
RS-15 01 Aug 07:32:39 07:44:05 68° 122° (ESE) 07:56:07 29.354- 29.394
BRITE-PL 01 Aug 07:38:05 07:42:59 75° 103° (ESE) 07:48:16 437.365/2234.400
DOVE 4 01 Aug 07:39:16 07:43:29 24° 90° (E) 07:47:44 437.250
Cubesat XI-IV 01 Aug 07:45:17 07:50:29 49° 99° (E) 07:55:38 437.490
NOAA 18 01 Aug 07:48:30 07:53:54 50° 100° (E) 07:59:15 137.9125
YUBILEINY 01 Aug 07:51:25 07:54:21 12° 64° (ENE) 07:57:17 435.215
Cosmos 2491 01 Aug 08:06:48 08:15:13 47° 67° (ENE) 08:23:36 435.465 / 435.565
CUTE-I 01 Aug 08:07:09 08:12:31 72° 104° (ESE) 08:17:50 437.470
NOAA 15 01 Aug 08:09:39 08:14:58 89° 280° (W) 08:20:15 137.62
GOMX 1 01 Aug 08:12:48 08:17:56 77° 103° (ESE) 08:23:20 467.674
HORYU 2 01 Aug 08:15:45 08:19:11 22° 302° (WNW) 08:22:37 437.375
HO-68 01 Aug 08:19:26 08:24:39 21° 86° (E) 08:29:48 435.675
AO-7 01 Aug 08:32:04 08:38:14 24° 323° (NW) 08:44:22 29.400- 29.500
CANX-2 01 Aug 08:35:35 08:38:35 19° 90° (E) 08:41:34 2200.000
LilacSat-2 01 Aug 08:40:04 08:43:47 44° 291° (WNW) 08:47:27 437.200
STRAND 1 01 Aug 08:40:47 08:45:31 36° 264° (W) 08:50:16 437.568
SO-50 01 Aug 08:44:59 08:49:52 81° 131° (SE) 08:54:42 436.795
PRISM 01 Aug 08:45:58 08:49:55 51° 69° (ENE) 08:53:53 437.425
CUTE 1.7 + AOD 2 01 Aug 08:47:45 08:51:00 21° 91° (E) 08:54:14 437.475
CINEMA 3 01 Aug 08:48:48 08:53:18 31° 93° (E) 08:57:42 145.822/145.860
ANTELSAT 01 Aug 08:59:42 09:01:44 13° 51° (NE) 09:03:45 437.575/2403.000
DOVE 4 01 Aug 09:16:25 09:21:33 64° 289° (WNW) 09:26:48 437.250
SEEDS 01 Aug 09:16:37 09:20:17 29° 95° (E) 09:23:55 437.485
BRITE-PL 01 Aug 09:17:28 09:21:05 21° 301° (WNW) 09:24:54 437.365/2234.400
COMPASS 1 01 Aug 09:18:23 09:21:39 22° 92° (E) 09:24:56 437.405
CUBEBUG 2 01 Aug 09:20:00 09:23:30 20° 89° (E) 09:26:56 437.445
Cubesat XI-IV 01 Aug 09:25:39 09:30:26 34° 299° (WNW) 09:35:10 437.490
NOAA 18 01 Aug 09:29:27 09:34:26 35° 301° (WNW) 09:39:23 137.9125
TIGRISAT 01 Aug 09:37:42 09:41:21 23° 59° (ENE) 09:45:00 435.000
YUBILEINY 01 Aug 09:40:31 09:48:51 50° 88° (E) 09:57:15 435.215
AAUSAT CUBESAT 2 01 Aug 09:40:59 09:44:37 29° 95° (E) 09:48:14 437.432
RS-15 01 Aug 09:45:25 09:57:07 60° 331° (NNW) 10:09:20 29.354- 29.394
CUTE-I 01 Aug 09:47:53 09:52:07 24° 304° (NW) 09:56:20 437.470
NOAA 15 01 Aug 09:50:25 09:54:06 20° 307° (NW) 09:57:46 137.62
GOMX 1 01 Aug 09:51:43 09:55:34 22° 302° (WNW) 09:59:34 467.674
Cosmos 2504 01 Aug 09:54:36 10:01:21 25° 77° (ENE) 10:07:58 435.465 / 435.565
UNISAT 6 01 Aug 09:55:18 09:59:27 32° 63° (ENE) 10:03:37 437.425
FUNcube-1 01 Aug 10:06:33 10:10:10 23° 91° (E) 10:13:41 145.935
